Time,TemperatureF,DewpointF,PressureIn,WindDirection,WindDirectionDegrees,WindSpeedMPH,WindSpeedGustMPH,Humidity,HourlyPrecipIn,Conditions,Clouds,dailyrainin,SoftwareType,DateUTC
2013-06-14 00:02:00,56.0,-99.9,-100.00,NE,53,8.0,16.0,-999,0.00,,,0.48,,2013-06-14 04:02:00,
2013-06-14 00:12:00,56.0,-99.9,-100.00,NE,53,8.0,16.0,-999,0.00,,,0.48,,2013-06-14 04:12:00,
2013-06-14 00:33:00,56.0,-99.9,-100.00,NE,42,6.0,20.0,-999,0.00,,,0.48,,2013-06-14 04:33:00,
2013-06-14 00:43:00,56.0,-99.9,-100.00,NE,42,6.0,20.0,-999,0.00,,,0.48,,2013-06-14 04:43:00,
2013-06-14 00:53:00,56.0,-99.9,-100.00,NE,42,6.0,20.0,-999,0.00,,,0.48,,2013-06-14 04:53:00,
2013-06-14 01:02:00,56.0,-99.9,-100.00,NE,42,6.0,20.0,-999,0.00,,,0.48,,2013-06-14 05:02:00,
2013-06-14 01:12:00,56.0,-99.9,-100.00,NE,42,6.0,20.0,-999,0.00,,,0.48,,2013-06-14 05:12:00,
2013-06-14 01:34:00,56.0,-99.9,-100.00,NE,49,8.0,20.0,-999,0.00,,,0.65,,2013-06-14 05:34:00,
2013-06-14 01:43:00,56.0,-99.9,-100.00,NE,49,8.0,20.0,-999,0.00,,,0.65,,2013-06-14 05:43:00,
2013-06-14 01:52:00,56.0,-99.9,-100.00,NE,49,8.0,20.0,-999,0.00,,,0.65,,2013-06-14 05:52:00,
2013-06-14 02:02:00,56.0,-99.9,-100.00,NE,49,8.0,20.0,-999,0.00,,,0.65,,2013-06-14 06:02:00,
2013-06-14 02:12:00,56.0,-99.9,-100.00,NE,49,8.0,20.0,-999,0.00,,,0.65,,2013-06-14 06:12:00,
2013-06-14 02:34:00,55.0,-99.9,-100.00,NE,42,9.0,16.0,-999,0.00,,,0.78,,2013-06-14 06:34:00,
2013-06-14 02:44:00,55.0,-99.9,-100.00,NE,42,9.0,16.0,-999,0.00,,,0.78,,2013-06-14 06:44:00,
2013-06-14 02:52:00,55.0,-99.9,-100.00,NE,42,9.0,16.0,-999,0.00,,,0.78,,2013-06-14 06:52:00,
2013-06-14 03:02:00,55.0,-99.9,-100.00,NE,42,9.0,16.0,-999,0.00,,,0.78,,2013-06-14 07:02:00,
2013-06-14 03:12:00,55.0,-99.9,-100.00,NE,42,9.0,16.0,-999,0.00,,,0.78,,2013-06-14 07:12:00,
2013-06-14 03:33:00,54.0,-99.9,-100.00,NNE,16,11.0,19.0,-999,0.00,,,0.85,,2013-06-14 07:33:00,
2013-06-14 03:44:00,54.0,-99.9,-100.00,NNE,16,11.0,19.0,-999,0.00,,,0.85,,2013-06-14 07:44:00,
2013-06-14 03:53:00,54.0,-99.9,-100.00,NNE,16,11.0,19.0,-999,0.00,,,0.85,,2013-06-14 07:53:00,
2013-06-14 04:02:00,54.0,-99.9,-100.00,NNE,16,11.0,19.0,-999,0.00,,,0.85,,2013-06-14 08:02:00,
2013-06-14 04:12:00,54.0,-99.9,-100.00,NNE,16,11.0,19.0,-999,0.00,,,0.85,,2013-06-14 08:12:00,
2013-06-14 04:33:00,54.0,-99.9,-100.00,NNE,23,10.0,18.0,-999,0.00,,,0.93,,2013-06-14 08:33:00,
2013-06-14 04:43:00,54.0,-99.9,-100.00,North,9,11.0,22.0,-999,0.00,,,0.96,,2013-06-14 08:43:00,
2013-06-14 04:53:00,54.0,-99.9,-100.00,North,9,11.0,22.0,-999,0.00,,,0.96,,2013-06-14 08:53:00,
2013-06-14 05:02:00,54.0,-99.9,-100.00,North,9,11.0,22.0,-999,0.00,,,0.96,,2013-06-14 09:02:00,
2013-06-14 05:12:00,54.0,-99.9,-100.00,North,9,11.0,22.0,-999,0.00,,,0.96,,2013-06-14 09:12:00,
2013-06-14 05:33:00,54.0,-99.9,-100.00,North,7,14.0,19.0,-999,0.00,,,0.98,,2013-06-14 09:33:00,
2013-06-14 05:43:00,54.0,-99.9,-100.00,NNE,13,13.0,23.0,-999,0.00,,,0.99,,2013-06-14 09:43:00,
2013-06-14 05:53:00,54.0,-99.9,-100.00,NNE,13,13.0,23.0,-999,0.00,,,0.99,,2013-06-14 09:53:00,
2013-06-14 06:02:00,54.0,-99.9,-100.00,NNE,13,13.0,23.0,-999,0.00,,,0.99,,2013-06-14 10:02:00,
2013-06-14 06:12:00,54.0,-99.9,-100.00,NNE,13,13.0,23.0,-999,0.00,,,0.99,,2013-06-14 10:12:00,
2013-06-14 06:34:00,54.0,-99.9,-100.00,NNE,20,12.0,18.0,-999,0.00,,,1.02,,2013-06-14 10:34:00,
2013-06-14 06:44:00,54.0,-99.9,-100.00,NNE,25,9.0,18.0,-999,0.00,,,1.02,,2013-06-14 10:44:00,
2013-06-14 06:53:00,54.0,-99.9,-100.00,NNE,25,9.0,18.0,-999,0.00,,,1.02,,2013-06-14 10:53:00,
2013-06-14 07:02:00,54.0,-99.9,-100.00,NNE,25,9.0,18.0,-999,0.00,,,1.02,,2013-06-14 11:02:00,
2013-06-14 07:11:00,54.0,-99.9,-100.00,NNE,25,9.0,18.0,-999,0.00,,,1.02,,2013-06-14 11:11:00,
2013-06-14 07:33:00,55.0,-99.9,-100.00,NNE,19,10.0,18.0,-999,0.00,,,1.02,,2013-06-14 11:33:00,
2013-06-14 07:43:00,55.0,-99.9,-100.00,NNE,19,10.0,18.0,-999,0.00,,,1.02,,2013-06-14 11:43:00,
2013-06-14 07:52:00,55.0,-99.9,-100.00,NNE,19,10.0,18.0,-999,0.00,,,1.02,,2013-06-14 11:52:00,
2013-06-14 08:02:00,55.0,-99.9,-100.00,NNE,19,10.0,18.0,-999,0.00,,,1.02,,2013-06-14 12:02:00,
2013-06-14 08:12:00,55.0,-99.9,-100.00,NNE,19,10.0,18.0,-999,0.00,,,1.02,,2013-06-14 12:12:00,
2013-06-14 08:33:00,55.0,-99.9,-100.00,NNE,22,12.0,20.0,-999,0.00,,,1.02,,2013-06-14 12:33:00,
2013-06-14 08:44:00,55.0,-99.9,-100.00,NNE,25,8.0,14.0,-999,0.00,,,1.02,,2013-06-14 12:44:00,
2013-06-14 08:53:00,55.0,-99.9,-100.00,NNE,25,8.0,14.0,-999,0.00,,,1.02,,2013-06-14 12:53:00,
2013-06-14 09:02:00,55.0,-99.9,-100.00,NNE,25,8.0,14.0,-999,0.00,,,1.02,,2013-06-14 13:02:00,
2013-06-14 09:12:00,55.0,-99.9,-100.00,NNE,25,8.0,14.0,-999,0.00,,,1.02,,2013-06-14 13:12:00,
2013-06-14 09:33:00,57.0,-99.9,-100.00,North,10,15.0,20.0,-999,-99.99,,,1.02,,2013-06-14 13:33:00,
2013-06-14 09:43:00,59.0,-99.9,-100.00,NNE,17,10.0,18.0,-999,-99.99,,,1.02,,2013-06-14 13:43:00,
2013-06-14 09:53:00,59.0,-99.9,-100.00,NNE,17,10.0,18.0,-999,-99.99,,,1.02,,2013-06-14 13:53:00,
2013-06-14 10:02:00,59.0,-99.9,-100.00,NNE,17,10.0,18.0,-999,-99.99,,,1.02,,2013-06-14 14:02:00,
2013-06-14 10:12:00,59.0,-99.9,-100.00,NNE,17,10.0,18.0,-999,-99.99,,,1.02,,2013-06-14 14:12:00,
2013-06-14 10:34:00,60.0,-99.9,-100.00,North,4,14.0,21.0,-999,-99.99,,,1.02,,2013-06-14 14:34:00,
2013-06-14 10:43:00,60.0,-99.9,-100.00,North,4,14.0,21.0,-999,-99.99,,,1.02,,2013-06-14 14:43:00,
2013-06-14 10:52:00,60.0,-99.9,-100.00,North,4,14.0,21.0,-999,-99.99,,,1.02,,2013-06-14 14:52:00,
2013-06-14 11:02:00,60.0,-99.9,-100.00,North,4,14.0,21.0,-999,-99.99,,,1.02,,2013-06-14 15:02:00,
2013-06-14 11:12:00,60.0,-99.9,-100.00,North,4,14.0,21.0,-999,-99.99,,,1.02,,2013-06-14 15:12:00,
2013-06-14 11:34:00,61.0,-99.9,-100.00,North,9,14.0,21.0,-999,-99.99,,,1.02,,2013-06-14 15:34:00,
2013-06-14 11:44:00,60.0,-99.9,-100.00,North,349,11.0,18.0,-999,-99.99,,,1.01,,2013-06-14 15:44:00,
2013-06-14 11:53:00,60.0,-99.9,-100.00,North,349,11.0,18.0,-999,-99.99,,,1.01,,2013-06-14 15:53:00,
2013-06-14 12:02:00,60.0,-99.9,-100.00,North,349,11.0,18.0,-999,-99.99,,,1.01,,2013-06-14 16:02:00,
2013-06-14 12:11:00,60.0,-99.9,-100.00,North,349,11.0,18.0,-999,-99.99,,,1.01,,2013-06-14 16:11:00,
2013-06-14 12:33:00,61.0,-99.9,-100.00,North,1,8.0,18.0,-999,-99.99,,,1.00,,2013-06-14 16:33:00,
2013-06-14 12:43:00,60.0,-99.9,-100.00,North,354,11.0,20.0,-999,-99.99,,,0.94,,2013-06-14 16:43:00,
2013-06-14 12:53:00,60.0,-99.9,-100.00,North,354,11.0,20.0,-999,-99.99,,,0.94,,2013-06-14 16:53:00,
2013-06-14 13:02:00,60.0,-99.9,-100.00,North,354,11.0,20.0,-999,-99.99,,,0.94,,2013-06-14 17:02:00,
2013-06-14 13:12:00,60.0,-99.9,-100.00,North,354,11.0,20.0,-999,-99.99,,,0.94,,2013-06-14 17:12:00,
2013-06-14 13:34:00,60.0,-99.9,-100.00,North,354,11.0,14.0,-999,-99.99,,,0.86,,2013-06-14 17:34:00,
2013-06-14 13:43:00,60.0,-99.9,-100.00,North,5,7.0,16.0,-999,-99.99,,,0.79,,2013-06-14 17:43:00,
2013-06-14 13:54:00,60.0,-99.9,-100.00,North,5,7.0,16.0,-999,-99.99,,,0.79,,2013-06-14 17:54:00,
2013-06-14 14:02:00,60.0,-99.9,-100.00,North,5,7.0,16.0,-999,-99.99,,,0.79,,2013-06-14 18:02:00,
2013-06-14 14:12:00,60.0,-99.9,-100.00,North,5,7.0,16.0,-999,-99.99,,,0.79,,2013-06-14 18:12:00,
2013-06-14 14:33:00,61.0,-99.9,-100.00,NW,319,7.0,11.0,-999,-99.99,,,0.78,,2013-06-14 18:33:00,
2013-06-14 14:43:00,61.0,-99.9,-100.00,NW,319,7.0,11.0,-999,-99.99,,,0.78,,2013-06-14 18:43:00,
2013-06-14 14:52:00,61.0,-99.9,-100.00,NW,319,7.0,11.0,-999,-99.99,,,0.78,,2013-06-14 18:52:00,
2013-06-14 15:02:00,61.0,-99.9,-100.00,NW,319,7.0,11.0,-999,-99.99,,,0.78,,2013-06-14 19:02:00,
2013-06-14 15:11:00,61.0,-99.9,-100.00,NW,319,7.0,11.0,-999,-99.99,,,0.78,,2013-06-14 19:11:00,
2013-06-14 15:33:00,64.0,-99.9,-100.00,North,354,8.0,13.0,-999,-99.99,,,0.78,,2013-06-14 19:33:00,
2013-06-14 15:43:00,64.0,-99.9,-100.00,NNW,330,9.0,11.0,-999,-99.99,,,0.78,,2013-06-14 19:43:00,
2013-06-14 15:53:00,64.0,-99.9,-100.00,NNW,330,9.0,11.0,-999,-99.99,,,0.78,,2013-06-14 19:53:00,
2013-06-14 16:02:00,64.0,-99.9,-100.00,NNW,330,9.0,11.0,-999,-99.99,,,0.78,,2013-06-14 20:02:00,
2013-06-14 16:11:00,64.0,-99.9,-100.00,NNW,330,9.0,11.0,-999,-99.99,,,0.78,,2013-06-14 20:11:00,
2013-06-14 16:33:00,66.0,-99.9,-100.00,NW,323,5.0,11.0,-999,-99.99,,,0.78,,2013-06-14 20:33:00,
2013-06-14 16:43:00,65.0,-99.9,-100.00,WNW,288,6.0,7.0,-999,-99.99,,,0.78,,2013-06-14 20:43:00,
2013-06-14 16:53:00,65.0,-99.9,-100.00,WNW,288,6.0,7.0,-999,-99.99,,,0.78,,2013-06-14 20:53:00,
2013-06-14 17:02:00,65.0,-99.9,-100.00,WNW,288,6.0,7.0,-999,-99.99,,,0.78,,2013-06-14 21:02:00,
2013-06-14 17:12:00,65.0,-99.9,-100.00,WNW,288,6.0,7.0,-999,-99.99,,,0.78,,2013-06-14 21:12:00,
2013-06-14 17:34:00,67.0,-99.9,-100.00,WNW,294,4.0,7.0,-999,-99.99,,,0.78,,2013-06-14 21:34:00,
2013-06-14 17:43:00,67.0,-99.9,-100.00,WNW,294,4.0,7.0,-999,-99.99,,,0.78,,2013-06-14 21:43:00,
2013-06-14 17:52:00,67.0,-99.9,-100.00,WNW,294,4.0,7.0,-999,-99.99,,,0.78,,2013-06-14 21:52:00,
2013-06-14 18:02:00,67.0,-99.9,-100.00,WNW,294,4.0,7.0,-999,-99.99,,,0.78,,2013-06-14 22:02:00,
2013-06-14 18:12:00,67.0,-99.9,-100.00,WNW,294,4.0,7.0,-999,-99.99,,,0.78,,2013-06-14 22:12:00,
2013-06-14 18:33:00,68.0,-99.9,-100.00,West,264,8.0,10.0,-999,-99.99,,,0.77,,2013-06-14 22:33:00,
2013-06-14 18:43:00,68.0,-99.9,-100.00,West,264,8.0,10.0,-999,-99.99,,,0.77,,2013-06-14 22:43:00,
2013-06-14 18:53:00,68.0,-99.9,-100.00,West,264,8.0,10.0,-999,-99.99,,,0.77,,2013-06-14 22:53:00,
2013-06-14 19:02:00,68.0,-99.9,-100.00,West,264,8.0,10.0,-999,-99.99,,,0.77,,2013-06-14 23:02:00,
2013-06-14 19:12:00,68.0,-99.9,-100.00,West,264,8.0,10.0,-999,-99.99,,,0.77,,2013-06-14 23:12:00,
2013-06-14 19:33:00,67.0,-99.9,-100.00,West,271,5.0,7.0,-999,-99.99,,,0.77,,2013-06-14 23:33:00,
2013-06-14 19:43:00,67.0,-99.9,-100.00,West,271,5.0,7.0,-999,-99.99,,,0.77,,2013-06-14 23:43:00,
2013-06-14 19:52:00,67.0,-99.9,-100.00,West,271,5.0,7.0,-999,-99.99,,,0.77,,2013-06-14 23:52:00,
2013-06-14 20:02:00,67.0,-99.9,-100.00,West,271,5.0,7.0,-999,-99.99,,,0.77,,2013-06-15 00:02:00,
2013-06-14 20:12:00,67.0,-99.9,-100.00,West,271,5.0,7.0,-999,-99.99,,,0.77,,2013-06-15 00:12:00,
2013-06-14 20:34:00,63.0,-99.9,-100.00,WSW,249,6.0,8.0,-999,-99.99,,,0.77,,2013-06-15 00:34:00,
2013-06-14 20:43:00,62.0,-99.9,-100.00,WSW,239,3.0,5.0,-999,-99.99,,,0.77,,2013-06-15 00:43:00,
2013-06-14 20:53:00,62.0,-99.9,-100.00,WSW,239,3.0,5.0,-999,-99.99,,,0.77,,2013-06-15 00:53:00,
2013-06-14 21:02:00,62.0,-99.9,-100.00,WSW,239,3.0,5.0,-999,-99.99,,,0.77,,2013-06-15 01:02:00,
2013-06-14 21:12:00,62.0,-99.9,-100.00,WSW,239,3.0,5.0,-999,-99.99,,,0.77,,2013-06-15 01:12:00,
2013-06-14 21:43:00,62.0,-99.9,-100.00,WNW,287,8.0,10.0,-999,0.00,,,0.77,,2013-06-15 01:43:00,
2013-06-14 21:54:00,62.0,-99.9,-100.00,WNW,287,8.0,10.0,-999,0.00,,,0.77,,2013-06-15 01:54:00,
2013-06-14 22:02:00,62.0,-99.9,-100.00,WNW,287,8.0,10.0,-999,0.00,,,0.77,,2013-06-15 02:02:00,
2013-06-14 22:12:00,62.0,-99.9,-100.00,WNW,287,8.0,10.0,-999,0.00,,,0.77,,2013-06-15 02:12:00,
2013-06-14 22:34:00,62.0,-99.9,-100.00,WNW,283,7.0,10.0,-999,-99.99,,,0.51,,2013-06-15 02:34:00,
2013-06-14 22:43:00,62.0,-99.9,-100.00,West,281,7.0,10.0,-999,-99.99,,,0.50,,2013-06-15 02:43:00,
2013-06-14 22:53:00,62.0,-99.9,-100.00,West,281,7.0,10.0,-999,-99.99,,,0.50,,2013-06-15 02:53:00,
2013-06-14 23:02:00,62.0,-99.9,-100.00,West,281,7.0,10.0,-999,-99.99,,,0.50,,2013-06-15 03:02:00,
2013-06-14 23:11:00,62.0,-99.9,-100.00,West,281,7.0,10.0,-999,-99.99,,,0.50,,2013-06-15 03:11:00,
2013-06-14 23:44:00,62.0,-99.9,-100.00,WNW,288,7.0,11.0,-999,-99.99,,,0.49,,2013-06-15 03:44:00,
2013-06-14 23:53:00,62.0,-99.9,-100.00,WNW,288,7.0,11.0,-999,-99.99,,,0.49,,2013-06-15 03:53:00,